Time,TemperatureF,DewpointF,PressureIn,WindDirection,WindDirectionDegrees,WindSpeedMPH,WindSpeedGustMPH,Humidity,HourlyPrecipIn,Conditions,Clouds,dailyrainin,SoftwareType,DateUTC
2013-11-16 00:00:00,45.8,44.2,30.29,South,189,0.0,10.0,94,0.15,,,0.01,Wunderground v.1.15,2013-11-16 05:00:00,
2013-11-16 00:05:00,45.7,44.1,30.29,South,188,0.0,10.0,94,0.15,,,0.02,Wunderground v.1.15,2013-11-16 05:05:00,
2013-11-16 00:10:00,45.6,44.0,30.29,South,189,0.0,10.0,94,0.13,,,0.03,Wunderground v.1.15,2013-11-16 05:10:00,
2013-11-16 00:15:00,45.5,44.2,30.29,South,188,1.0,10.0,95,0.17,,,0.04,Wunderground v.1.15,2013-11-16 05:15:00,
2013-11-16 00:20:00,45.4,44.3,30.29,South,190,1.0,1.0,96,0.13,,,0.05,Wunderground v.1.15,2013-11-16 05:20:00,
2013-11-16 00:25:00,45.4,44.3,30.29,South,190,0.0,10.0,96,0.14,,,0.07,Wunderground v.1.15,2013-11-16 05:25:00,
2013-11-16 00:30:00,45.4,44.3,30.29,South,190,0.0,10.0,96,0.12,,,0.08,Wunderground v.1.15,2013-11-16 05:30:00,
2013-11-16 00:35:00,45.5,44.4,30.28,South,190,0.0,10.0,96,0.18,,,0.09,Wunderground v.1.15,2013-11-16 05:35:00,
2013-11-16 00:40:00,45.5,44.4,30.28,South,190,0.0,10.0,96,0.13,,,0.10,Wunderground v.1.15,2013-11-16 05:40:00,
2013-11-16 00:45:00,45.5,44.7,30.28,South,190,0.0,10.0,97,0.13,,,0.11,Wunderground v.1.15,2013-11-16 05:45:00,
2013-11-16 00:55:00,45.5,44.7,30.28,South,190,0.0,10.0,97,0.18,,,0.14,Wunderground v.1.15,2013-11-16 05:55:00,
2013-11-16 01:00:00,45.6,44.8,30.28,South,190,0.0,10.0,97,0.17,,,0.15,Wunderground v.1.15,2013-11-16 06:00:00,
2013-11-16 01:05:00,45.7,44.9,30.28,South,190,0.0,10.0,97,0.17,,,0.16,Wunderground v.1.15,2013-11-16 06:05:00,
2013-11-16 01:10:00,45.6,44.8,30.28,South,190,0.0,10.0,97,0.16,,,0.18,Wunderground v.1.15,2013-11-16 06:10:00,
2013-11-16 01:15:00,45.6,44.8,30.27,South,190,0.0,10.0,97,0.15,,,0.19,Wunderground v.1.15,2013-11-16 06:15:00,
2013-11-16 01:25:00,45.5,44.7,30.27,South,190,0.0,10.0,97,0.15,,,0.21,Wunderground v.1.15,2013-11-16 06:25:00,
2013-11-16 01:30:00,45.4,44.6,30.27,South,190,0.0,10.0,97,0.08,,,0.22,Wunderground v.1.15,2013-11-16 06:30:00,
2013-11-16 01:35:00,45.4,44.9,30.27,South,190,0.0,10.0,98,0.09,,,0.22,Wunderground v.1.15,2013-11-16 06:35:00,
2013-11-16 01:45:00,45.5,45.0,30.27,South,190,0.0,10.0,98,0.12,,,0.24,Wunderground v.1.15,2013-11-16 06:45:00,
2013-11-16 01:50:00,45.5,45.0,30.27,South,190,0.0,10.0,98,0.10,,,0.25,Wunderground v.1.15,2013-11-16 06:50:00,
2013-11-16 01:55:00,45.5,45.0,30.27,South,190,0.0,10.0,98,0.11,,,0.26,Wunderground v.1.15,2013-11-16 06:55:00,
2013-11-16 02:00:00,45.5,45.0,30.27,South,190,0.0,10.0,98,0.10,,,0.27,Wunderground v.1.15,2013-11-16 07:00:00,
2013-11-16 02:05:00,45.4,44.9,30.27,South,190,0.0,10.0,98,0.08,,,0.28,Wunderground v.1.15,2013-11-16 07:05:00,
2013-11-16 02:10:00,45.5,45.2,30.27,South,190,0.0,10.0,99,0.08,,,0.28,Wunderground v.1.15,2013-11-16 07:10:00,
2013-11-16 02:15:00,45.5,45.2,30.27,South,190,0.0,10.0,99,0.08,,,0.29,Wunderground v.1.15,2013-11-16 07:15:00,
2013-11-16 02:20:00,45.6,45.3,30.27,South,190,0.0,10.0,99,0.08,,,0.29,Wunderground v.1.15,2013-11-16 07:20:00,
2013-11-16 02:25:00,45.6,45.3,30.27,South,190,0.0,10.0,99,0.05,,,0.29,Wunderground v.1.15,2013-11-16 07:25:00,
2013-11-16 02:30:00,45.6,45.3,30.27,South,190,0.0,10.0,99,0.04,,,0.30,Wunderground v.1.15,2013-11-16 07:30:00,
2013-11-16 02:35:00,45.6,45.3,30.27,South,190,0.0,10.0,99,0.04,,,0.30,Wunderground v.1.15,2013-11-16 07:35:00,
2013-11-16 02:45:00,45.6,45.3,30.27,South,190,0.0,10.0,99,0.07,,,0.31,Wunderground v.1.15,2013-11-16 07:45:00,
2013-11-16 02:50:00,45.7,45.4,30.26,South,190,0.0,10.0,99,0.05,,,0.31,Wunderground v.1.15,2013-11-16 07:50:00,
2013-11-16 02:55:00,45.7,45.4,30.26,South,190,0.0,10.0,99,0.04,,,0.32,Wunderground v.1.15,2013-11-16 07:55:00,
2013-11-16 03:00:00,45.7,45.4,30.26,South,190,0.0,10.0,99,0.04,,,0.32,Wunderground v.1.15,2013-11-16 08:00:00,
2013-11-16 03:05:00,45.7,45.4,30.26,South,190,0.0,10.0,99,0.06,,,0.33,Wunderground v.1.15,2013-11-16 08:05:00,
2013-11-16 03:15:00,45.7,45.4,30.26,South,190,0.0,10.0,99,0.04,,,0.33,Wunderground v.1.15,2013-11-16 08:15:00,
2013-11-16 03:20:00,45.7,45.4,30.26,South,190,0.0,10.0,99,0.00,,,0.33,Wunderground v.1.15,2013-11-16 08:20:00,
2013-11-16 03:25:00,45.7,45.4,30.26,South,190,0.0,10.0,99,0.00,,,0.33,Wunderground v.1.15,2013-11-16 08:25:00,
2013-11-16 03:35:00,45.6,45.3,30.25,South,190,0.0,10.0,99,0.00,,,0.33,Wunderground v.1.15,2013-11-16 08:35:00,
2013-11-16 03:45:00,45.5,45.2,30.26,South,190,0.0,10.0,99,0.00,,,0.33,Wunderground v.1.15,2013-11-16 08:45:00,
2013-11-16 03:50:00,45.6,45.3,30.26,South,190,0.0,10.0,99,0.00,,,0.33,Wunderground v.1.15,2013-11-16 08:50:00,
2013-11-16 03:55:00,45.6,45.3,30.26,South,190,0.0,10.0,99,0.00,,,0.33,Wunderground v.1.15,2013-11-16 08:55:00,
2013-11-16 04:00:00,45.5,45.2,30.26,South,190,0.0,10.0,99,0.00,,,0.33,Wunderground v.1.15,2013-11-16 09:00:00,
2013-11-16 04:10:00,45.5,45.2,30.26,South,190,0.0,10.0,99,0.00,,,0.33,Wunderground v.1.15,2013-11-16 09:10:00,
2013-11-16 04:15:00,45.6,45.3,30.26,South,190,0.0,10.0,99,0.00,,,0.33,Wunderground v.1.15,2013-11-16 09:15:00,
2013-11-16 04:20:00,45.7,45.4,30.26,South,190,0.0,10.0,99,0.00,,,0.33,Wunderground v.1.15,2013-11-16 09:20:00,
2013-11-16 04:25:00,45.7,45.4,30.26,South,190,0.0,10.0,99,0.00,,,0.33,Wunderground v.1.15,2013-11-16 09:25:00,
2013-11-16 04:35:00,45.7,45.4,30.27,South,190,0.0,10.0,99,0.00,,,0.33,Wunderground v.1.15,2013-11-16 09:35:00,
2013-11-16 04:40:00,45.6,45.3,30.27,South,190,0.0,10.0,99,0.00,,,0.33,Wunderground v.1.15,2013-11-16 09:40:00,
2013-11-16 04:45:00,45.7,45.7,30.27,South,190,0.0,10.0,100,0.00,,,0.33,Wunderground v.1.15,2013-11-16 09:45:00,
2013-11-16 04:50:00,45.7,45.7,30.27,South,190,0.0,10.0,100,0.00,,,0.33,Wunderground v.1.15,2013-11-16 09:50:00,
2013-11-16 04:55:00,45.7,45.7,30.27,South,190,0.0,10.0,100,0.00,,,0.33,Wunderground v.1.15,2013-11-16 09:55:00,
2013-11-16 05:05:00,45.6,45.6,30.27,South,190,0.0,10.0,100,0.00,,,0.33,Wunderground v.1.15,2013-11-16 10:05:00,
2013-11-16 05:10:00,45.6,45.6,30.27,South,190,0.0,10.0,100,0.00,,,0.33,Wunderground v.1.15,2013-11-16 10:10:00,
2013-11-16 05:20:00,45.4,45.4,30.27,South,190,0.0,10.0,100,0.00,,,0.33,Wunderground v.1.15,2013-11-16 10:20:00,
2013-11-16 05:25:00,45.3,45.3,30.27,South,190,0.0,10.0,100,0.00,,,0.33,Wunderground v.1.15,2013-11-16 10:25:00,
2013-11-16 05:30:00,45.3,45.3,30.27,South,190,0.0,10.0,100,0.00,,,0.33,Wunderground v.1.15,2013-11-16 10:30:00,
2013-11-16 05:35:00,45.2,45.2,30.27,South,190,0.0,10.0,100,0.00,,,0.33,Wunderground v.1.15,2013-11-16 10:35:00,
2013-11-16 05:45:00,45.2,45.2,30.28,South,190,0.0,10.0,100,0.00,,,0.33,Wunderground v.1.15,2013-11-16 10:45:00,
2013-11-16 05:50:00,45.2,45.2,30.28,South,190,0.0,10.0,100,0.00,,,0.33,Wunderground v.1.15,2013-11-16 10:50:00,
2013-11-16 05:55:00,45.1,45.1,30.28,South,190,0.0,10.0,100,0.00,,,0.33,Wunderground v.1.15,2013-11-16 10:55:00,
2013-11-16 06:00:00,45.0,45.0,30.28,South,190,0.0,10.0,100,0.00,,,0.33,Wunderground v.1.15,2013-11-16 11:00:00,
2013-11-16 06:05:00,44.7,44.7,30.28,South,190,0.0,10.0,100,0.00,,,0.33,Wunderground v.1.15,2013-11-16 11:05:00,
2013-11-16 06:15:00,44.7,44.7,30.28,South,190,0.0,10.0,100,0.00,,,0.33,Wunderground v.1.15,2013-11-16 11:15:00,
2013-11-16 06:20:00,44.7,44.7,30.28,South,190,0.0,10.0,100,0.00,,,0.33,Wunderground v.1.15,2013-11-16 11:20:00,
2013-11-16 06:25:00,44.7,44.7,30.29,South,190,0.0,10.0,100,0.00,,,0.33,Wunderground v.1.15,2013-11-16 11:25:00,
2013-11-16 06:30:00,44.8,44.8,30.29,South,190,0.0,10.0,100,0.00,,,0.33,Wunderground v.1.15,2013-11-16 11:30:00,
2013-11-16 06:35:00,44.9,44.9,30.29,South,190,0.0,10.0,100,0.00,,,0.33,Wunderground v.1.15,2013-11-16 11:35:00,
2013-11-16 06:45:00,45.0,45.0,30.30,South,190,0.0,10.0,100,0.00,,,0.33,Wunderground v.1.15,2013-11-16 11:45:00,
2013-11-16 06:50:00,45.0,45.0,30.30,South,190,0.0,10.0,100,0.00,,,0.33,Wunderground v.1.15,2013-11-16 11:50:00,
2013-11-16 06:55:00,44.9,44.9,30.31,South,190,0.0,10.0,100,0.00,,,0.33,Wunderground v.1.15,2013-11-16 11:55:00,
2013-11-16 07:00:00,44.7,44.7,30.30,South,190,0.0,10.0,100,0.00,,,0.33,Wunderground v.1.15,2013-11-16 12:00:00,
2013-11-16 07:10:00,44.6,44.6,30.31,South,190,0.0,10.0,100,0.00,,,0.33,Wunderground v.1.15,2013-11-16 12:10:00,
2013-11-16 07:15:00,44.6,44.6,30.31,South,190,0.0,10.0,100,0.00,,,0.33,Wunderground v.1.15,2013-11-16 12:15:00,
2013-11-16 07:20:00,44.7,44.7,30.31,South,190,0.0,10.0,100,0.00,,,0.33,Wunderground v.1.15,2013-11-16 12:20:00,
2013-11-16 07:25:00,44.8,44.8,30.31,South,190,0.0,10.0,100,0.00,,,0.33,Wunderground v.1.15,2013-11-16 12:25:00,
2013-11-16 07:35:00,45.1,45.1,30.31,South,190,0.0,10.0,100,0.00,,,0.33,Wunderground v.1.15,2013-11-16 12:35:00,
2013-11-16 07:40:00,45.3,45.3,30.32,South,190,0.0,10.0,100,0.00,,,0.33,Wunderground v.1.15,2013-11-16 12:40:00,
2013-11-16 07:45:00,45.5,45.5,30.32,South,190,0.0,10.0,100,0.00,,,0.33,Wunderground v.1.15,2013-11-16 12:45:00,
2013-11-16 07:50:00,45.6,45.6,30.32,South,190,0.0,10.0,100,0.00,,,0.33,Wunderground v.1.15,2013-11-16 12:50:00,
2013-11-16 07:55:00,45.8,45.8,30.32,South,190,0.0,10.0,100,0.00,,,0.33,Wunderground v.1.15,2013-11-16 12:55:00,
2013-11-16 08:05:00,46.0,46.0,30.32,South,190,0.0,10.0,100,0.00,,,0.33,Wunderground v.1.15,2013-11-16 13:05:00,
2013-11-16 08:10:00,46.1,46.1,30.32,South,190,0.0,10.0,100,0.00,,,0.33,Wunderground v.1.15,2013-11-16 13:10:00,
2013-11-16 08:15:00,46.3,46.3,30.32,South,190,0.0,10.0,100,0.00,,,0.33,Wunderground v.1.15,2013-11-16 13:15:00,
2013-11-16 08:20:00,46.5,46.5,30.32,South,190,0.0,10.0,100,0.00,,,0.33,Wunderground v.1.15,2013-11-16 13:20:00,
2013-11-16 08:25:00,46.7,46.7,30.32,South,190,0.0,10.0,100,0.00,,,0.33,Wunderground v.1.15,2013-11-16 13:25:00,
2013-11-16 08:35:00,47.0,47.0,30.33,South,190,0.0,10.0,100,0.00,,,0.33,Wunderground v.1.15,2013-11-16 13:35:00,
2013-11-16 08:40:00,47.2,47.2,30.33,South,190,0.0,10.0,100,0.00,,,0.33,Wunderground v.1.15,2013-11-16 13:40:00,
2013-11-16 08:45:00,47.3,47.3,30.33,South,190,0.0,10.0,100,0.00,,,0.33,Wunderground v.1.15,2013-11-16 13:45:00,
2013-11-16 08:50:00,47.2,47.2,30.34,South,190,0.0,10.0,100,0.00,,,0.33,Wunderground v.1.15,2013-11-16 13:50:00,
2013-11-16 09:00:00,47.3,47.3,30.34,South,190,0.0,10.0,100,0.00,,,0.33,Wunderground v.1.15,2013-11-16 14:00:00,
2013-11-16 09:05:00,47.4,47.4,30.34,South,190,0.0,10.0,100,0.00,,,0.33,Wunderground v.1.15,2013-11-16 14:05:00,
2013-11-16 09:10:00,47.6,47.6,30.34,South,190,0.0,10.0,100,0.00,,,0.33,Wunderground v.1.15,2013-11-16 14:10:00,
2013-11-16 09:15:00,47.8,47.8,30.34,South,190,0.0,10.0,100,0.00,,,0.33,Wunderground v.1.15,2013-11-16 14:15:00,
2013-11-16 09:20:00,47.7,47.7,30.34,South,190,0.0,10.0,100,0.00,,,0.33,Wunderground v.1.15,2013-11-16 14:20:00,
2013-11-16 09:30:00,47.8,47.8,30.34,South,190,0.0,10.0,100,0.00,,,0.33,Wunderground v.1.15,2013-11-16 14:30:00,
2013-11-16 09:35:00,48.1,48.1,30.34,South,190,0.0,10.0,100,0.00,,,0.33,Wunderground v.1.15,2013-11-16 14:35:00,
2013-11-16 09:40:00,48.2,48.2,30.34,South,190,0.0,10.0,100,0.00,,,0.33,Wunderground v.1.15,2013-11-16 14:40:00,
2013-11-16 09:45:00,48.5,48.5,30.34,South,190,0.0,10.0,100,0.00,,,0.33,Wunderground v.1.15,2013-11-16 14:45:00,
2013-11-16 09:50:00,48.7,48.7,30.33,South,190,0.0,10.0,100,0.00,,,0.33,Wunderground v.1.15,2013-11-16 14:50:00,
2013-11-16 10:00:00,48.8,48.8,30.34,South,190,0.0,10.0,100,0.00,,,0.33,Wunderground v.1.15,2013-11-16 15:00:00,
2013-11-16 10:05:00,49.0,49.0,30.34,South,190,0.0,10.0,100,0.00,,,0.33,Wunderground v.1.15,2013-11-16 15:05:00,
2013-11-16 10:10:00,49.1,49.1,30.34,South,190,0.0,10.0,100,0.00,,,0.33,Wunderground v.1.15,2013-11-16 15:10:00,
2013-11-16 10:15:00,49.0,49.0,30.34,SE,128,1.0,10.0,100,0.00,,,0.33,Wunderground v.1.15,2013-11-16 15:15:00,
2013-11-16 10:25:00,49.0,49.0,30.34,SE,128,1.0,10.0,100,0.00,,,0.33,Wunderground v.1.15,2013-11-16 15:25:00,
2013-11-16 10:30:00,49.2,49.2,30.34,SE,128,1.0,1.0,100,0.00,,,0.33,Wunderground v.1.15,2013-11-16 15:30:00,
2013-11-16 10:35:00,49.3,49.3,30.34,SE,128,0.0,10.0,100,0.00,,,0.33,Wunderground v.1.15,2013-11-16 15:35:00,
2013-11-16 10:40:00,49.4,49.4,30.34,SE,129,1.0,10.0,100,0.00,,,0.33,Wunderground v.1.15,2013-11-16 15:40:00,
2013-11-16 10:45:00,49.3,49.3,30.33,ESE,123,1.0,10.0,100,0.00,,,0.33,Wunderground v.1.15,2013-11-16 15:45:00,
2013-11-16 10:55:00,49.5,49.5,30.33,ESE,122,1.0,10.0,100,0.00,,,0.33,Wunderground v.1.15,2013-11-16 15:55:00,
2013-11-16 11:00:00,49.6,49.6,30.33,ESE,123,1.0,10.0,100,0.00,,,0.33,Wunderground v.1.15,2013-11-16 16:00:00,
2013-11-16 11:05:00,49.7,49.7,30.33,ESE,123,0.0,10.0,100,0.00,,,0.33,Wunderground v.1.15,2013-11-16 16:05:00,
2013-11-16 11:10:00,49.8,49.5,30.33,ESE,122,1.0,1.0,99,0.00,,,0.33,Wunderground v.1.15,2013-11-16 16:10:00,
2013-11-16 11:20:00,50.1,49.8,30.32,ESE,122,0.0,10.0,99,0.00,,,0.33,Wunderground v.1.15,2013-11-16 16:20:00,
2013-11-16 11:25:00,50.1,49.8,30.32,ESE,123,0.0,10.0,99,0.00,,,0.33,Wunderground v.1.15,2013-11-16 16:25:00,
2013-11-16 11:35:00,50.1,49.8,30.31,ESE,122,0.0,10.0,99,0.00,,,0.33,Wunderground v.1.15,2013-11-16 16:35:00,
2013-11-16 11:40:00,50.1,49.6,30.31,ESE,123,1.0,1.0,98,0.00,,,0.33,Wunderground v.1.15,2013-11-16 16:40:00,
2013-11-16 11:50:00,50.3,49.8,30.31,ESE,122,0.0,10.0,98,0.00,,,0.33,Wunderground v.1.15,2013-11-16 16:50:00,
2013-11-16 11:55:00,50.6,50.1,30.31,ESE,123,0.0,10.0,98,0.00,,,0.33,Wunderground v.1.15,2013-11-16 16:55:00,
2013-11-16 12:00:00,50.9,50.6,30.31,ESE,122,0.0,10.0,99,0.00,,,0.33,Wunderground v.1.15,2013-11-16 17:00:00,
2013-11-16 12:05:00,51.2,50.7,30.31,ESE,123,0.0,10.0,98,0.00,,,0.33,Wunderground v.1.15,2013-11-16 17:05:00,
2013-11-16 12:15:00,51.2,50.4,30.31,ESE,122,0.0,10.0,97,0.00,,,0.33,Wunderground v.1.15,2013-11-16 17:15:00,
2013-11-16 12:20:00,51.2,50.4,30.31,ESE,123,0.0,10.0,97,0.00,,,0.33,Wunderground v.1.15,2013-11-16 17:20:00,
2013-11-16 12:25:00,51.3,50.5,30.31,ESE,123,0.0,10.0,97,0.00,,,0.33,Wunderground v.1.15,2013-11-16 17:25:00,
2013-11-16 12:35:00,51.4,50.6,30.30,ESE,123,0.0,0.0,97,0.00,,,0.33,Wunderground v.1.15,2013-11-16 17:35:00,
2013-11-16 12:40:00,51.5,50.7,30.30,ESE,123,0.0,0.0,97,0.00,,,0.33,Wunderground v.1.15,2013-11-16 17:40:00,
2013-11-16 12:45:00,51.7,50.6,30.30,ESE,122,0.0,0.0,96,0.00,,,0.33,Wunderground v.1.15,2013-11-16 17:45:00,
2013-11-16 12:55:00,51.6,50.5,30.30,ESE,123,0.0,0.0,96,0.00,,,0.33,Wunderground v.1.15,2013-11-16 17:55:00,
2013-11-16 13:00:00,51.6,50.5,30.29,ESE,122,0.0,0.0,96,0.00,,,0.33,Wunderground v.1.15,2013-11-16 18:00:00,
2013-11-16 13:05:00,51.7,50.6,30.29,ESE,123,0.0,3.0,96,0.00,,,0.33,Wunderground v.1.15,2013-11-16 18:05:00,
2013-11-16 13:10:00,51.6,50.5,30.28,ESE,122,0.0,3.0,96,0.00,,,0.33,Wunderground v.1.15,2013-11-16 18:10:00,
2013-11-16 13:15:00,51.5,50.4,30.28,ESE,123,1.0,3.0,96,0.00,,,0.33,Wunderground v.1.15,2013-11-16 18:15:00,
2013-11-16 13:25:00,51.3,50.2,30.28,ESE,122,1.0,3.0,96,0.00,,,0.33,Wunderground v.1.15,2013-11-16 18:25:00,
2013-11-16 13:30:00,51.4,50.3,30.28,ESE,123,0.0,3.0,96,0.00,,,0.33,Wunderground v.1.15,2013-11-16 18:30:00,
2013-11-16 13:35:00,51.5,50.4,30.28,ESE,123,1.0,3.0,96,0.00,,,0.33,Wunderground v.1.15,2013-11-16 18:35:00,
2013-11-16 13:45:00,51.5,50.4,30.29,ESE,122,1.0,3.0,96,0.00,,,0.33,Wunderground v.1.15,2013-11-16 18:45:00,
2013-11-16 13:50:00,51.6,50.5,30.29,ESE,122,1.0,1.0,96,0.00,,,0.33,Wunderground v.1.15,2013-11-16 18:50:00,
2013-11-16 13:55:00,51.6,50.5,30.29,ESE,123,0.0,3.0,96,0.00,,,0.33,Wunderground v.1.15,2013-11-16 18:55:00,
2013-11-16 14:00:00,51.7,50.6,30.29,ESE,123,0.0,3.0,96,0.00,,,0.33,Wunderground v.1.15,2013-11-16 19:00:00,
2013-11-16 14:05:00,51.8,51.0,30.29,ESE,123,0.0,3.0,97,0.00,,,0.33,Wunderground v.1.15,2013-11-16 19:05:00,
2013-11-16 14:15:00,51.8,50.7,30.29,East,84,0.0,3.0,96,0.00,,,0.33,Wunderground v.1.15,2013-11-16 19:15:00,
2013-11-16 14:20:00,51.8,50.7,30.29,SSE,157,0.0,3.0,96,0.00,,,0.33,Wunderground v.1.15,2013-11-16 19:20:00,
2013-11-16 14:25:00,51.8,50.7,30.29,East,98,1.0,3.0,96,0.00,,,0.33,Wunderground v.1.15,2013-11-16 19:25:00,
2013-11-16 14:35:00,51.6,50.5,30.29,East,99,1.0,3.0,96,0.00,,,0.33,Wunderground v.1.15,2013-11-16 19:35:00,
2013-11-16 14:40:00,51.6,50.8,30.29,East,99,1.0,3.0,97,0.00,,,0.33,Wunderground v.1.15,2013-11-16 19:40:00,
2013-11-16 14:45:00,51.6,50.8,30.28,East,99,1.0,3.0,97,0.00,,,0.33,Wunderground v.1.15,2013-11-16 19:45:00,
2013-11-16 14:55:00,51.6,50.8,30.28,East,99,1.0,3.0,97,0.00,,,0.33,Wunderground v.1.15,2013-11-16 19:55:00,
2013-11-16 15:00:00,51.6,50.8,30.28,East,99,1.0,3.0,97,0.00,,,0.33,Wunderground v.1.15,2013-11-16 20:00:00,
2013-11-16 15:05:00,51.7,50.9,30.29,East,99,1.0,3.0,97,0.00,,,0.33,Wunderground v.1.15,2013-11-16 20:05:00,
2013-11-16 15:10:00,51.7,50.9,30.29,East,99,1.0,1.0,97,0.00,,,0.33,Wunderground v.1.15,2013-11-16 20:10:00,
2013-11-16 15:15:00,51.7,50.9,30.29,East,99,0.0,3.0,97,0.00,,,0.33,Wunderground v.1.15,2013-11-16 20:15:00,
2013-11-16 15:25:00,51.7,50.9,30.29,East,99,0.0,3.0,97,0.00,,,0.33,Wunderground v.1.15,2013-11-16 20:25:00,
2013-11-16 15:35:00,51.7,50.9,30.29,East,99,0.0,3.0,97,0.00,,,0.33,Wunderground v.1.15,2013-11-16 20:35:00,
2013-11-16 15:40:00,51.7,50.9,30.29,East,99,1.0,1.0,97,0.00,,,0.33,Wunderground v.1.15,2013-11-16 20:40:00,
2013-11-16 15:45:00,51.7,50.9,30.29,East,99,1.0,3.0,97,0.00,,,0.33,Wunderground v.1.15,2013-11-16 20:45:00,
2013-11-16 15:50:00,51.6,50.8,30.29,East,99,1.0,1.0,97,0.00,,,0.33,Wunderground v.1.15,2013-11-16 20:50:00,
2013-11-16 15:55:00,51.6,50.8,30.28,East,99,1.0,3.0,97,0.00,,,0.33,Wunderground v.1.15,2013-11-16 20:55:00,
2013-11-16 16:05:00,51.5,50.7,30.28,East,99,1.0,3.0,97,0.00,,,0.33,Wunderground v.1.15,2013-11-16 21:05:00,
2013-11-16 16:10:00,51.6,50.8,30.28,East,99,0.0,3.0,97,0.00,,,0.33,Wunderground v.1.15,2013-11-16 21:10:00,
2013-11-16 16:15:00,51.6,50.8,30.29,East,99,0.0,3.0,97,0.00,,,0.33,Wunderground v.1.15,2013-11-16 21:15:00,
2013-11-16 16:20:00,51.7,50.9,30.29,East,99,0.0,3.0,97,0.00,,,0.33,Wunderground v.1.15,2013-11-16 21:20:00,
2013-11-16 16:25:00,51.7,50.9,30.29,East,99,0.0,3.0,97,0.00,,,0.33,Wunderground v.1.15,2013-11-16 21:25:00,
2013-11-16 16:35:00,51.7,50.9,30.29,East,99,0.0,3.0,97,0.00,,,0.33,Wunderground v.1.15,2013-11-16 21:35:00,
2013-11-16 16:40:00,51.7,50.9,30.29,East,99,0.0,3.0,97,0.00,,,0.33,Wunderground v.1.15,2013-11-16 21:40:00,
2013-11-16 16:45:00,51.7,50.9,30.29,East,99,0.0,3.0,97,0.00,,,0.33,Wunderground v.1.15,2013-11-16 21:45:00,
2013-11-16 16:50:00,51.7,50.9,30.29,East,99,0.0,3.0,97,0.00,,,0.33,Wunderground v.1.15,2013-11-16 21:50:00,
2013-11-16 17:00:00,51.6,50.8,30.29,East,99,1.0,1.0,97,0.00,,,0.33,Wunderground v.1.15,2013-11-16 22:00:00,
2013-11-16 17:05:00,51.5,50.7,30.29,East,99,1.0,3.0,97,0.00,,,0.33,Wunderground v.1.15,2013-11-16 22:05:00,
2013-11-16 17:10:00,51.5,50.7,30.28,East,98,1.0,1.0,97,0.00,,,0.33,Wunderground v.1.15,2013-11-16 22:10:00,
2013-11-16 17:15:00,51.4,50.9,30.28,East,93,2.0,5.0,98,0.00,,,0.33,Wunderground v.1.15,2013-11-16 22:15:00,
2013-11-16 17:25:00,51.3,50.8,30.29,East,92,1.0,3.0,98,0.00,,,0.33,Wunderground v.1.15,2013-11-16 22:25:00,
2013-11-16 17:31:00,51.3,50.8,30.29,East,92,1.0,3.0,98,0.00,,,0.33,Wunderground v.1.15,2013-11-16 22:31:00,
2013-11-16 17:40:00,51.3,50.8,30.29,East,92,2.0,2.0,98,0.00,,,0.33,Wunderground v.1.15,2013-11-16 22:40:00,
2013-11-16 17:45:00,51.3,50.8,30.30,East,92,1.0,3.0,98,0.00,,,0.33,Wunderground v.1.15,2013-11-16 22:45:00,
2013-11-16 17:50:00,51.3,50.8,30.29,East,92,1.0,4.0,98,0.00,,,0.33,Wunderground v.1.15,2013-11-16 22:50:00,
2013-11-16 18:00:00,51.4,50.9,30.29,East,99,1.0,3.0,98,0.00,,,0.33,Wunderground v.1.15,2013-11-16 23:00:00,
2013-11-16 18:05:00,51.4,50.9,30.28,East,99,1.0,3.0,98,0.00,,,0.33,Wunderground v.1.15,2013-11-16 23:05:00,
2013-11-16 18:10:00,51.3,50.8,30.29,East,92,1.0,1.0,98,0.00,,,0.33,Wunderground v.1.15,2013-11-16 23:10:00,
2013-11-16 18:15:00,51.3,50.8,30.29,East,92,1.0,4.0,98,0.00,,,0.33,Wunderground v.1.15,2013-11-16 23:15:00,
2013-11-16 18:20:00,51.2,50.7,30.28,East,92,1.0,3.0,98,0.00,,,0.33,Wunderground v.1.15,2013-11-16 23:20:00,
2013-11-16 18:30:00,51.0,50.7,30.29,ESE,102,1.0,1.0,99,0.00,,,0.33,Wunderground v.1.15,2013-11-16 23:30:00,
2013-11-16 18:35:00,51.0,50.7,30.28,ESE,102,0.0,3.0,99,0.00,,,0.33,Wunderground v.1.15,2013-11-16 23:35:00,
2013-11-16 18:40:00,50.9,50.6,30.29,ESE,102,0.0,3.0,99,0.00,,,0.33,Wunderground v.1.15,2013-11-16 23:40:00,
2013-11-16 18:45:00,50.9,50.6,30.29,ESE,102,0.0,3.0,99,0.00,,,0.33,Wunderground v.1.15,2013-11-16 23:45:00,
2013-11-16 18:50:00,50.9,50.6,30.29,ESE,102,0.0,3.0,99,0.00,,,0.33,Wunderground v.1.15,2013-11-16 23:50:00,
2013-11-16 19:00:00,50.8,50.5,30.29,ESE,102,0.0,3.0,99,0.00,,,0.33,Wunderground v.1.15,2013-11-17 00:00:00,
2013-11-16 19:10:00,50.8,50.5,30.29,ESE,102,0.0,3.0,99,0.00,,,0.33,Wunderground v.1.15,2013-11-17 00:10:00,
2013-11-16 19:15:00,50.7,50.7,30.30,ESE,102,0.0,3.0,100,0.00,,,0.33,Wunderground v.1.15,2013-11-17 00:15:00,
2013-11-16 19:20:00,50.7,50.7,30.30,ESE,102,0.0,3.0,100,0.00,,,0.34,Wunderground v.1.15,2013-11-17 00:20:00,
2013-11-16 19:25:00,50.7,50.7,30.30,ESE,102,0.0,3.0,100,0.00,,,0.34,Wunderground v.1.15,2013-11-17 00:25:00,
2013-11-16 19:31:00,50.7,50.7,30.30,ESE,102,0.0,3.0,100,0.00,,,0.34,Wunderground v.1.15,2013-11-17 00:31:00,
2013-11-16 19:40:00,50.6,50.6,30.29,ESE,102,1.0,1.0,100,0.00,,,0.34,Wunderground v.1.15,2013-11-17 00:40:00,
2013-11-16 19:45:00,50.6,50.6,30.29,ESE,102,0.0,3.0,100,0.00,,,0.34,Wunderground v.1.15,2013-11-17 00:45:00,
2013-11-16 19:55:00,50.6,50.6,30.29,ESE,102,1.0,3.0,100,0.00,,,0.34,Wunderground v.1.15,2013-11-17 00:55:00,
2013-11-16 20:00:00,50.6,50.6,30.29,ESE,102,1.0,1.0,100,0.00,,,0.34,Wunderground v.1.15,2013-11-17 01:00:00,
2013-11-16 20:05:00,50.6,50.6,30.29,ESE,102,0.0,3.0,100,0.00,,,0.34,Wunderground v.1.15,2013-11-17 01:05:00,
2013-11-16 20:10:00,50.5,50.5,30.29,ESE,102,0.0,3.0,100,0.00,,,0.34,Wunderground v.1.15,2013-11-17 01:10:00,
2013-11-16 20:20:00,50.5,50.5,30.28,ESE,102,0.0,3.0,100,0.00,,,0.34,Wunderground v.1.15,2013-11-17 01:20:00,
2013-11-16 20:25:00,50.6,50.6,30.28,ESE,102,0.0,3.0,100,0.00,,,0.34,Wunderground v.1.15,2013-11-17 01:25:00,
2013-11-16 20:30:00,50.6,50.6,30.28,ESE,102,1.0,1.0,100,0.00,,,0.34,Wunderground v.1.15,2013-11-17 01:30:00,
2013-11-16 20:35:00,50.6,50.6,30.28,ESE,102,1.0,2.0,100,0.00,,,0.34,Wunderground v.1.15,2013-11-17 01:35:00,
2013-11-16 20:40:00,50.5,50.5,30.29,ESE,102,1.0,1.0,100,0.00,,,0.34,Wunderground v.1.15,2013-11-17 01:40:00,
2013-11-16 20:50:00,50.5,50.5,30.28,ESE,102,0.0,3.0,100,0.00,,,0.34,Wunderground v.1.15,2013-11-17 01:50:00,
2013-11-16 20:55:00,50.6,50.6,30.28,ESE,102,0.0,3.0,100,0.00,,,0.34,Wunderground v.1.15,2013-11-17 01:55:00,
2013-11-16 21:00:00,50.6,50.6,30.28,ESE,102,1.0,1.0,100,0.00,,,0.34,Wunderground v.1.15,2013-11-17 02:00:00,
2013-11-16 21:05:00,50.5,50.5,30.28,ESE,102,0.0,3.0,100,0.00,,,0.34,Wunderground v.1.15,2013-11-17 02:05:00,
2013-11-16 21:10:00,50.5,50.5,30.28,ESE,102,1.0,3.0,100,0.00,,,0.34,Wunderground v.1.15,2013-11-17 02:10:00,
2013-11-16 21:20:00,50.5,50.5,30.28,ESE,102,1.0,1.0,100,0.00,,,0.34,Wunderground v.1.15,2013-11-17 02:20:00,
2013-11-16 21:25:00,50.5,50.5,30.28,ESE,102,1.0,3.0,100,0.00,,,0.34,Wunderground v.1.15,2013-11-17 02:25:00,
2013-11-16 21:30:00,50.5,50.5,30.28,ESE,102,0.0,3.0,100,0.00,,,0.34,Wunderground v.1.15,2013-11-17 02:30:00,
2013-11-16 21:35:00,50.5,50.5,30.28,ESE,102,0.0,3.0,100,0.00,,,0.34,Wunderground v.1.15,2013-11-17 02:35:00,
2013-11-16 21:45:00,50.5,50.5,30.28,ESE,102,0.0,3.0,100,0.00,,,0.34,Wunderground v.1.15,2013-11-17 02:45:00,
2013-11-16 21:50:00,50.5,50.5,30.27,ESE,102,0.0,3.0,100,0.00,,,0.34,Wunderground v.1.15,2013-11-17 02:50:00,
2013-11-16 21:55:00,50.5,50.5,30.27,ESE,102,0.0,3.0,100,0.00,,,0.34,Wunderground v.1.15,2013-11-17 02:55:00,
2013-11-16 22:00:00,50.5,50.5,30.27,ESE,102,0.0,3.0,100,0.00,,,0.34,Wunderground v.1.15,2013-11-17 03:00:00,
2013-11-16 22:10:00,50.6,50.6,30.27,ESE,102,0.0,3.0,100,0.00,,,0.34,Wunderground v.1.15,2013-11-17 03:10:00,
2013-11-16 22:15:00,50.6,50.6,30.26,ESE,102,0.0,3.0,100,0.00,,,0.34,Wunderground v.1.15,2013-11-17 03:15:00,
2013-11-16 22:20:00,50.6,50.6,30.26,ESE,102,0.0,3.0,100,0.00,,,0.34,Wunderground v.1.15,2013-11-17 03:20:00,
2013-11-16 22:25:00,50.6,50.6,30.26,ESE,102,0.0,3.0,100,0.00,,,0.34,Wunderground v.1.15,2013-11-17 03:25:00,
2013-11-16 22:35:00,50.6,50.6,30.26,ESE,102,1.0,2.0,100,0.00,,,0.34,Wunderground v.1.15,2013-11-17 03:35:00,
2013-11-16 22:40:00,50.6,50.6,30.26,ESE,102,1.0,3.0,100,0.00,,,0.34,Wunderground v.1.15,2013-11-17 03:40:00,
2013-11-16 22:45:00,50.6,50.6,30.26,ESE,102,1.0,3.0,100,0.00,,,0.34,Wunderground v.1.15,2013-11-17 03:45:00,
2013-11-16 22:50:00,50.6,50.6,30.26,ESE,102,1.0,3.0,100,0.00,,,0.34,Wunderground v.1.15,2013-11-17 03:50:00,
2013-11-16 22:55:00,50.6,50.6,30.27,ESE,102,1.0,3.0,100,0.00,,,0.34,Wunderground v.1.15,2013-11-17 03:55:00,
2013-11-16 23:05:00,50.6,50.6,30.26,ESE,102,0.0,3.0,100,0.00,,,0.34,Wunderground v.1.15,2013-11-17 04:05:00,
2013-11-16 23:10:00,50.7,50.7,30.26,ESE,102,0.0,3.0,100,0.00,,,0.34,Wunderground v.1.15,2013-11-17 04:10:00,
2013-11-16 23:15:00,50.6,50.6,30.26,ESE,102,0.0,3.0,100,0.00,,,0.34,Wunderground v.1.15,2013-11-17 04:15:00,
2013-11-16 23:25:00,50.7,50.7,30.26,ESE,102,0.0,3.0,100,0.00,,,0.34,Wunderground v.1.15,2013-11-17 04:25:00,
2013-11-16 23:30:00,50.8,50.8,30.27,ESE,102,0.0,3.0,100,0.00,,,0.34,Wunderground v.1.15,2013-11-17 04:30:00,
2013-11-16 23:35:00,50.8,50.8,30.27,ESE,102,0.0,3.0,100,0.00,,,0.34,Wunderground v.1.15,2013-11-17 04:35:00,
2013-11-16 23:40:00,50.9,50.9,30.27,ESE,102,0.0,3.0,100,0.00,,,0.34,Wunderground v.1.15,2013-11-17 04:40:00,
2013-11-16 23:45:00,50.9,50.9,30.27,ESE,102,0.0,3.0,100,0.00,,,0.34,Wunderground v.1.15,2013-11-17 04:45:00,
2013-11-16 23:55:00,51.0,51.0,30.26,ESE,102,0.0,3.0,100,0.00,,,0.34,Wunderground v.1.15,2013-11-17 04:55:00,